Radiation Dose at Monitoring Post of Fukushima Daini Nuclear Power Station
Date,Time,MP-1(microSv/h),MP-2(microSv/h),MP-3(microSv/h),MP-4(microSv/h),MP-5(microSv/h),MP-6(microSv/h),MP-7(microSv/h),Wind Direction,Wind Velocity(m/s),Rain
2015/05/22,00:00,0.547,0.326,0.575,0.532,0.474,0.249,0.221,west-southwest,5.8,No
2015/05/22,00:10,0.545,0.325,0.578,0.536,0.478,0.250,0.221,west,6.7,No
2015/05/22,00:20,0.547,0.326,0.575,0.532,0.473,0.247,0.222,west,7.6,No
2015/05/22,00:30,0.546,0.326,0.579,0.536,0.477,0.249,0.220,west-southwest,5.2,No
2015/05/22,00:40,0.544,0.325,0.574,0.533,0.472,0.249,0.222,west,4.7,No
2015/05/22,00:50,0.545,0.327,0.577,0.538,0.478,0.248,0.221,west,4.2,No
2015/05/22,01:00,0.546,0.323,0.573,0.533,0.474,0.250,0.222,west,2.7,No
2015/05/22,01:10,0.547,0.325,0.579,0.538,0.475,0.248,0.221,west,1.1,No
2015/05/22,01:20,0.544,0.323,0.573,0.533,0.472,0.248,0.221,west-northwest,1.6,No
2015/05/22,01:30,0.547,0.326,0.579,0.536,0.475,0.248,0.222,southwest,0.7,No
2015/05/22,01:40,0.545,0.325,0.573,0.533,0.474,0.249,0.222,west,1.4,No
2015/05/22,01:50,0.546,0.325,0.579,0.537,0.475,0.248,0.221,west,1.7,No
2015/05/22,02:00,0.543,0.326,0.575,0.534,0.474,0.249,0.221,west,1.7,No
2015/05/22,02:10,0.548,0.324,0.579,0.535,0.475,0.248,0.222,west-northwest,1.4,No
2015/05/22,02:20,0.543,0.326,0.575,0.536,0.479,0.249,0.222,northwest,3.7,No
2015/05/22,02:30,0.547,0.323,0.577,0.534,0.472,0.249,0.222,north-northwest,2.8,No
2015/05/22,02:40,0.544,0.326,0.576,0.537,0.477,0.249,0.221,north-northwest,3.5,No
2015/05/22,02:50,0.549,0.326,0.578,0.533,0.473,0.250,0.221,northwest,2.0,No
2015/05/22,03:00,0.546,0.324,0.574,0.536,0.478,0.248,0.220,west-northwest,1.4,No
2015/05/22,03:10,0.546,0.325,0.574,0.533,0.475,0.248,0.221,west-northwest,1.6,No
2015/05/22,03:20,0.545,0.323,0.577,0.536,0.477,0.249,0.220,west,3.9,No
2015/05/22,03:30,0.543,0.326,0.574,0.534,0.476,0.249,0.221,west-southwest,4.5,No
2015/05/22,03:40,0.546,0.326,0.578,0.534,0.474,0.250,0.221,west-southwest,4.1,No
2015/05/22,03:50,0.545,0.323,0.577,0.537,0.477,0.249,0.220,west-southwest,4.1,No
2015/05/22,04:00,0.546,0.325,0.580,0.533,0.473,0.249,0.221,southwest,5.3,No
2015/05/22,04:10,0.544,0.324,0.574,0.537,0.474,0.248,0.220,southwest,4.5,No
2015/05/22,04:20,0.545,0.325,0.577,0.534,0.474,0.248,0.222,southwest,2.5,No
2015/05/22,04:30,0.543,0.325,0.577,0.536,0.474,0.249,0.220,south-southwest,2.8,No
2015/05/22,04:40,0.547,0.324,0.575,0.531,0.475,0.250,0.222,southwest,3.0,No
2015/05/22,04:50,0.545,0.326,0.579,0.535,0.472,0.250,0.222,south-southwest,3.9,No
2015/05/22,05:00,0.546,0.324,0.576,0.536,0.478,0.250,0.222,southwest,3.6,No
2015/05/22,05:10,0.544,0.325,0.577,0.533,0.472,0.248,0.222,southwest,3.6,No
2015/05/22,05:20,0.544,0.324,0.575,0.535,0.475,0.248,0.222,southwest,3.7,No
2015/05/22,05:30,0.544,0.324,0.578,0.532,0.471,0.248,0.222,southwest,3.4,No
2015/05/22,05:40,0.544,0.325,0.575,0.537,0.475,0.248,0.221,southwest,3.1,No
2015/05/22,05:50,0.547,0.325,0.578,0.532,0.472,0.250,0.221,south-southwest,2.6,No
2015/05/22,06:00,0.544,0.324,0.573,0.537,0.475,0.249,0.222,south,3.9,No
2015/05/22,06:10,0.547,0.324,0.578,0.533,0.470,0.248,0.220,south-southwest,4.4,No
2015/05/22,06:20,0.544,0.323,0.574,0.536,0.475,0.249,0.223,south,4.7,No
2015/05/22,06:30,0.545,0.324,0.579,0.531,0.471,0.249,0.220,south-southwest,6.4,No
2015/05/22,06:40,0.546,0.321,0.574,0.538,0.475,0.249,0.219,southwest,5.9,No
2015/05/22,06:50,0.542,0.324,0.576,0.529,0.473,0.249,0.222,southwest,5.1,No
2015/05/22,07:00,0.543,0.324,0.571,0.535,0.474,0.249,0.221,south-southwest,4.7,No
2015/05/22,07:10,0.540,0.322,0.567,0.535,0.476,0.247,0.220,southwest,3.1,No
2015/05/22,07:20,0.545,0.320,0.576,0.529,0.469,0.250,0.219,southwest,2.5,No
2015/05/22,07:30,0.545,0.323,0.576,0.534,0.477,0.249,0.221,south-southwest,4.4,No
2015/05/22,07:40,0.544,0.325,0.569,0.532,0.474,0.249,0.221,south-southwest,3.3,No
2015/05/22,07:50,0.549,0.324,0.574,0.528,0.470,0.248,0.220,south,4.2,No
2015/05/22,08:00,0.544,0.321,0.577,0.531,0.476,0.247,0.219,south,6.0,No
2015/05/22,08:10,0.540,0.324,0.573,0.534,0.473,0.249,0.222,south,7.7,No
2015/05/22,08:20,0.547,0.326,0.576,0.532,0.470,0.247,0.221,south,7.6,No
2015/05/22,08:30,0.544,0.324,0.581,0.528,0.478,0.248,0.219,south,8.3,No
2015/05/22,08:40,0.540,0.322,0.573,0.535,0.474,0.250,0.221,south,9.0,No
2015/05/22,08:50,0.543,0.325,0.580,0.536,0.470,0.248,0.223,south,7.7,No
2015/05/22,09:00,0.547,0.326,0.577,0.533,0.475,0.249,0.220,south,7.8,No
2015/05/22,09:10,0.544,0.324,0.573,0.529,0.479,0.250,0.221,south,7.4,No
2015/05/22,09:20,0.540,0.322,0.579,0.527,0.474,0.249,0.222,south,7.7,No
2015/05/22,09:30,0.539,0.322,0.579,0.528,0.471,0.249,0.222,south,6.6,No
2015/05/22,09:40,0.550,0.326,0.572,-,0.474,0.250,0.221,south-southwest,6.4,No
2015/05/22,09:50,0.546,0.326,0.580,-,0.477,0.250,0.222,south-southwest,6.8,No
2015/05/22,10:00,0.544,0.323,0.579,-,0.474,0.248,0.222,south-southwest,6.1,No
2015/05/22,10:10,0.540,0.324,0.573,-,0.473,0.249,0.222,south-southwest,6.0,No
2015/05/22,10:20,0.549,0.326,0.571,-,0.469,0.249,0.220,south-southwest,7.5,No
2015/05/22,10:30,0.547,0.326,0.571,0.529,0.470,0.249,0.221,south-southwest,8.6,No
2015/05/22,10:40,0.543,0.325,0.573,0.531,0.470,0.249,0.222,south,8.1,No
2015/05/22,10:50,0.542,0.325,0.572,0.530,0.471,0.248,0.223,south-southwest,9.8,No
2015/05/22,11:00,0.542,0.322,0.573,0.529,0.472,0.250,0.221,south-southwest,11.3,No
2015/05/22,11:10,0.541,0.325,0.574,0.530,0.479,0.250,0.222,south-southwest,9.5,No
2015/05/22,11:20,0.543,0.323,0.575,0.534,0.477,0.249,0.221,south,10.8,No
2015/05/22,11:30,0.544,0.322,0.577,0.533,0.475,0.248,0.221,south-southwest,11.7,No
2015/05/22,11:40,0.542,0.323,0.572,0.535,0.474,0.250,0.222,south-southwest,10.5,No
2015/05/22,11:50,0.542,0.323,0.573,0.534,0.473,0.250,0.221,south,13.3,No
2015/05/22,12:00,0.543,0.323,0.576,0.535,0.474,0.248,0.220,south,12.2,No
2015/05/22,12:10,0.543,0.324,0.576,0.537,0.473,0.249,0.221,south,11.5,No
2015/05/22,12:20,0.542,0.324,0.575,0.536,0.473,0.250,0.221,south,13.1,No
2015/05/22,12:30,0.549,0.324,0.575,0.539,0.472,0.251,0.223,south,12.8,No
2015/05/22,12:40,0.552,0.327,0.575,0.544,0.477,0.250,0.223,south,14.9,No
2015/05/22,12:50,0.547,0.329,0.586,0.540,0.480,0.251,0.224,south,16.1,No
2015/05/22,13:00,0.545,0.326,0.585,0.537,0.476,0.251,0.223,south,12.9,No
2015/05/22,13:10,0.554,0.324,0.581,0.534,0.473,0.250,0.222,south,12.9,No
2015/05/22,13:20,0.552,0.325,0.577,0.540,0.475,0.252,0.224,south,12.6,No
2015/05/22,13:30,0.547,0.329,0.577,0.542,0.480,0.250,0.223,south,11.3,No
2015/05/22,13:40,0.549,0.326,0.575,0.541,0.479,0.250,0.222,south,13.2,No
2015/05/22,13:50,0.550,0.324,0.574,0.534,0.475,0.250,0.225,south,11.2,No
2015/05/22,14:00,0.548,0.323,0.576,0.534,0.473,0.251,0.222,south,12.3,No
2015/05/22,14:10,0.545,0.328,0.579,-,0.472,0.251,0.223,south,11.6,No
2015/05/22,14:20,0.548,0.328,0.583,-,0.477,0.249,0.224,south,12.1,No
2015/05/22,14:30,0.549,0.326,0.582,-,0.477,0.251,0.224,south,9.8,No
2015/05/22,14:40,0.546,0.323,0.580,-,0.474,0.251,0.222,south,9.5,No
2015/05/22,14:50,0.544,0.325,0.576,-,0.470,0.252,0.224,south,9.8,No
2015/05/22,15:00,0.549,0.328,0.577,0.541,0.478,0.250,0.224,south,10.4,No
2015/05/22,15:10,0.550,0.327,0.584,0.541,0.481,0.250,0.222,south-southwest,10.0,No
2015/05/22,15:20,0.547,0.325,0.583,0.536,0.474,0.250,0.225,south,10.5,No
2015/05/22,15:30,0.548,0.325,0.580,0.542,0.470,0.250,0.224,south-southwest,9.5,No
2015/05/22,15:40,0.551,0.326,0.578,0.541,0.470,0.249,0.222,south-southwest,8.8,No
2015/05/22,15:50,0.547,0.326,0.574,0.534,0.478,0.250,0.224,south-southwest,9.3,No
2015/05/22,16:00,0.546,0.323,0.582,0.542,0.478,0.250,0.224,south-southwest,7.5,No
2015/05/22,16:10,0.552,0.329,0.584,0.539,0.476,0.252,0.223,south,7.6,No
2015/05/22,16:20,0.547,0.327,0.579,0.536,0.473,0.250,0.225,south-southwest,7.8,No
2015/05/22,16:30,0.543,0.324,0.582,0.537,0.472,0.249,0.223,south,7.7,No
2015/05/22,16:40,0.550,0.328,0.585,0.544,0.472,0.249,0.223,south,8.5,No
2015/05/22,16:50,0.552,0.329,0.580,0.537,0.471,0.250,0.224,south-southwest,9.7,No
2015/05/22,17:00,0.546,0.323,0.580,0.538,0.469,0.251,0.224,south,9.4,No
2015/05/22,17:10,0.545,0.330,0.588,0.545,0.479,0.250,0.223,south,7.5,No
2015/05/22,17:20,0.553,0.329,0.583,0.537,0.478,0.251,0.223,south,7.2,No
2015/05/22,17:30,0.548,0.323,0.580,0.539,0.476,0.251,0.224,south-southwest,8.1,No
2015/05/22,17:40,0.543,0.329,0.585,0.543,0.472,0.251,0.225,south-southwest,8.6,No
2015/05/22,17:50,0.553,0.327,0.583,0.538,0.474,0.251,0.222,south-southwest,8.4,No
2015/05/22,18:00,0.549,0.326,0.577,0.543,0.482,0.250,0.223,south-southwest,8.3,No
2015/05/22,18:10,0.547,0.328,0.585,0.541,0.478,0.250,0.224,south-southwest,9.1,No
2015/05/22,18:20,0.554,0.327,0.580,0.537,0.476,0.250,0.223,south-southwest,8.7,No
2015/05/22,18:30,0.549,0.328,0.585,0.543,0.482,0.250,0.222,south-southwest,8.3,No
2015/05/22,18:40,0.548,0.326,0.587,0.539,0.474,0.252,0.223,south-southwest,9.2,No
2015/05/22,18:50,0.554,0.326,0.578,0.542,0.480,0.250,0.224,south-southwest,8.4,No
2015/05/22,19:00,0.546,0.328,0.586,0.540,0.476,0.250,0.224,southwest,8.0,No
2015/05/22,19:10,0.551,0.326,0.580,0.540,0.478,0.250,0.225,south-southwest,7.6,No
2015/05/22,19:20,0.551,0.326,0.583,0.544,0.478,0.251,0.224,south-southwest,7.3,No
2015/05/22,19:30,0.549,0.326,0.584,0.537,0.477,0.251,0.224,south-southwest,6.3,No
2015/05/22,19:40,0.551,0.328,0.581,0.544,0.478,0.251,0.223,south-southwest,6.8,No
2015/05/22,19:50,0.546,0.326,0.585,0.539,0.474,0.251,0.224,south-southwest,5.5,No
2015/05/22,20:00,0.553,0.329,0.581,0.542,0.480,0.250,0.223,southwest,4.8,No
2015/05/22,20:10,0.549,0.325,0.585,0.543,0.475,0.252,0.224,southwest,3.7,No
2015/05/22,20:20,0.553,0.327,0.580,0.539,0.477,0.252,0.224,south-southwest,3.0,No
2015/05/22,20:30,0.548,0.326,0.582,0.544,0.475,0.252,0.224,southwest,3.6,No
2015/05/22,20:40,0.551,0.328,0.584,0.539,0.479,0.252,0.225,south-southwest,3.8,No
2015/05/22,20:50,0.550,0.326,0.582,0.543,0.476,0.251,0.223,southwest,3.9,No
2015/05/22,21:00,0.551,0.328,0.584,0.539,0.477,0.251,0.225,southwest,4.6,No
2015/05/22,21:10,0.551,0.326,0.581,0.544,0.476,0.251,0.224,southwest,5.3,No
2015/05/22,21:20,0.550,0.327,0.585,0.537,0.477,0.252,0.225,southwest,5.2,No
2015/05/22,21:30,0.552,0.326,0.579,0.544,0.477,0.251,0.224,south-southwest,5.0,No
2015/05/22,21:40,0.547,0.326,0.586,0.540,0.476,0.251,0.225,south-southwest,4.5,No
2015/05/22,21:50,0.550,0.327,0.579,0.544,0.478,0.251,0.225,south-southwest,4.4,No
2015/05/22,22:00,0.549,0.326,0.587,0.540,0.476,0.252,0.224,southwest,4.5,No
2015/05/22,22:10,0.550,0.327,0.580,0.545,0.477,0.251,0.226,south-southwest,5.0,No
2015/05/22,22:20,0.546,0.326,0.584,0.540,0.475,0.252,0.224,south-southwest,4.8,No
2015/05/22,22:30,0.552,0.328,0.581,0.544,0.477,0.250,0.225,south,5.6,No
2015/05/22,22:40,0.549,0.326,0.586,0.539,0.472,0.251,0.224,south-southwest,6.2,No
2015/05/22,22:50,0.553,0.328,0.580,0.542,0.479,0.250,0.225,south-southwest,6.7,No
2015/05/22,23:00,0.545,0.327,0.585,0.540,0.474,0.253,0.224,south-southwest,5.8,No
2015/05/22,23:10,0.552,0.327,0.582,0.544,0.481,0.251,0.223,south-southwest,7.2,No
2015/05/22,23:20,0.546,0.327,0.584,0.539,0.474,0.252,0.225,southwest,7.1,No
2015/05/22,23:30,0.551,0.328,0.582,0.543,0.480,0.251,0.224,south-southwest,7.8,No
2015/05/22,23:40,0.546,0.327,0.583,0.538,0.475,0.252,0.226,south-southwest,6.1,No
2015/05/22,23:50,0.551,0.327,0.585,0.543,0.478,0.251,0.225,south-southwest,5.9,No
